QTR79 KMIA-KMCO

Flight info

Callsign QTR79
Flight time 0h 41m
Altitude 22000
Route FLMGO2 WAPOM MUNGI1
Aircraft B77W/H-SDE1E2E3FGHIJ2J3J4J5M1RWXY/LB1D1

Departure

Time 2026-04-26 02:52
Airport Miami International Airport (KMIA)

Arrival

Time 2026-04-26 03:33
Airport Orlando International Airport (KMCO)
Time Latitude Longitude Altitude Speed Heading
2026-04-26 01:27 25.79788 -80.27942 21 ft 0 kts 178°
2026-04-26 02:34 25.79792 -80.27942 24 ft 5 kts 178°
2026-04-26 02:35 25.79826 -80.27943 20 ft 5 kts 178°
2026-04-26 02:35 25.79860 -80.27944 20 ft 5 kts 179°
2026-04-26 02:35 25.79882 -80.27944 19 ft 5 kts 183°
2026-04-26 02:35 25.79911 -80.27939 18 ft 2 kts 210°
2026-04-26 02:36 25.79917 -80.27934 18 ft 2 kts 233°
2026-04-26 02:36 25.79922 -80.27923 18 ft 2 kts 260°
2026-04-26 02:36 25.79923 -80.27911 18 ft 2 kts 267°
2026-04-26 02:36 25.79924 -80.27901 18 ft 0 kts 269°
2026-04-26 02:41 25.79924 -80.27904 18 ft 2 kts 269°
2026-04-26 02:41 25.79923 -80.27948 18 ft 12 kts 269°
2026-04-26 02:41 25.79920 -80.28070 18 ft 15 kts 268°
2026-04-26 02:42 25.79947 -80.28161 19 ft 12 kts 296°
2026-04-26 02:42 25.79963 -80.28250 22 ft 12 kts 263°
2026-04-26 02:42 25.79954 -80.28344 20 ft 12 kts 265°
2026-04-26 02:42 25.79947 -80.28437 21 ft 12 kts 265°
2026-04-26 02:43 25.80023 -80.28596 24 ft 12 kts 277°
2026-04-26 02:43 25.80021 -80.28690 26 ft 12 kts 268°
2026-04-26 02:43 25.80018 -80.28775 27 ft 10 kts 268°
2026-04-26 02:44 25.80015 -80.28855 26 ft 10 kts 268°
2026-04-26 02:44 25.80012 -80.28936 30 ft 10 kts 267°
2026-04-26 02:44 25.80009 -80.29017 25 ft 11 kts 267°
2026-04-26 02:44 25.80005 -80.29103 26 ft 11 kts 267°
2026-04-26 02:45 25.80002 -80.29188 26 ft 11 kts 267°
2026-04-26 02:45 25.79998 -80.29283 25 ft 14 kts 267°
2026-04-26 02:45 25.79993 -80.29400 21 ft 17 kts 267°
2026-04-26 02:45 25.79987 -80.29540 19 ft 19 kts 267°
2026-04-26 02:46 25.79981 -80.29678 19 ft 18 kts 267°
2026-04-26 02:46 25.79975 -80.29815 18 ft 18 kts 267°
2026-04-26 02:46 25.79970 -80.29927 16 ft 0 kts 267°
2026-04-26 02:46 25.79970 -80.29929 16 ft 0 kts 267°
2026-04-26 02:50 25.79968 -80.30010 17 ft 15 kts 275°
2026-04-26 02:50 25.80006 -80.30093 19 ft 10 kts 332°
2026-04-26 02:51 25.80048 -80.30086 20 ft 8 kts 40°
2026-04-26 02:51 25.80075 -80.29998 17 ft 17 kts 81°
2026-04-26 02:51 25.80078 -80.29954 17 ft 22 kts 86°
2026-04-26 02:51 25.80100 -80.29423 21 ft 114 kts 87°
2026-04-26 02:52 25.80148 -80.28251 49 ft 183 kts 88°
2026-04-26 02:52 25.80225 -80.26847 982 ft 177 kts 87°
2026-04-26 02:52 25.80309 -80.25440 1767 ft 192 kts 87°
2026-04-26 02:52 25.80384 -80.23840 2103 ft 225 kts 88°
2026-04-26 02:53 25.80455 -80.21988 2590 ft 250 kts 88°
2026-04-26 02:53 25.80521 -80.20045 3606 ft 255 kts 87°
2026-04-26 02:53 25.80897 -80.18107 4424 ft 265 kts 64°
2026-04-26 02:53 25.82113 -80.16565 5376 ft 272 kts 32°
2026-04-26 02:54 25.83908 -80.15905 6368 ft 275 kts
2026-04-26 02:54 25.85834 -80.15842 7223 ft 283 kts
2026-04-26 02:54 25.87774 -80.15777 8190 ft 285 kts
2026-04-26 02:54 25.89768 -80.15800 9074 ft 290 kts 351°
2026-04-26 02:55 25.91742 -80.16379 9850 ft 297 kts 340°
2026-04-26 02:55 25.93697 -80.17130 10610 ft 309 kts 340°
2026-04-26 02:55 25.95834 -80.17932 11268 ft 324 kts 340°
2026-04-26 02:55 25.97930 -80.18694 12542 ft 317 kts 338°
2026-04-26 02:56 25.99842 -80.19889 13637 ft 315 kts 319°
2026-04-26 02:56 26.01492 -80.21535 14643 ft 322 kts 317°
2026-04-26 02:56 26.03165 -80.23228 15656 ft 328 kts 317°
2026-04-26 02:56 26.04864 -80.24945 16734 ft 332 kts 317°
2026-04-26 02:57 26.06588 -80.26678 17780 ft 337 kts 317°
2026-04-26 02:57 26.08343 -80.28435 18781 ft 342 kts 317°
2026-04-26 02:57 26.10130 -80.30217 19762 ft 347 kts 317°
2026-04-26 02:57 26.11943 -80.32023 20592 ft 352 kts 317°
2026-04-26 02:58 26.13781 -80.33852 20965 ft 357 kts 316°
2026-04-26 02:58 26.15686 -80.35749 20969 ft 373 kts 317°
2026-04-26 02:58 26.17633 -80.37686 20974 ft 377 kts 317°
2026-04-26 02:58 26.19597 -80.39640 20971 ft 379 kts 317°
2026-04-26 02:59 26.21561 -80.41595 20967 ft 379 kts 317°
2026-04-26 02:59 26.23636 -80.43409 20945 ft 380 kts 328°
2026-04-26 02:59 26.26005 -80.44742 20955 ft 381 kts 333°
2026-04-26 02:59 26.28424 -80.45961 20954 ft 382 kts 334°
2026-04-26 03:00 26.30865 -80.47048 20956 ft 383 kts 338°
2026-04-26 03:00 26.33418 -80.48034 20961 ft 384 kts 339°
2026-04-26 03:00 26.35951 -80.48965 20965 ft 384 kts 340°
2026-04-26 03:00 26.38457 -80.49878 20964 ft 383 kts 340°
2026-04-26 03:01 26.40990 -80.50808 20962 ft 383 kts 339°
2026-04-26 03:01 26.43518 -80.51746 20963 ft 383 kts 339°
2026-04-26 03:01 26.46042 -80.52690 20963 ft 383 kts 339°
2026-04-26 03:01 26.48570 -80.53642 20962 ft 383 kts 339°
2026-04-26 03:02 26.51098 -80.54598 20965 ft 383 kts 339°
2026-04-26 03:02 26.53622 -80.55554 20971 ft 384 kts 339°
2026-04-26 03:02 26.56153 -80.56515 20974 ft 384 kts 339°
2026-04-26 03:02 26.58679 -80.57474 20974 ft 384 kts 339°
2026-04-26 03:03 26.61209 -80.58436 20972 ft 384 kts 339°
2026-04-26 03:03 26.63734 -80.59395 20972 ft 383 kts 339°
2026-04-26 03:03 26.66263 -80.60357 20972 ft 383 kts 339°
2026-04-26 03:03 26.68793 -80.61320 20973 ft 383 kts 339°
2026-04-26 03:04 26.71314 -80.62280 20973 ft 383 kts 339°
2026-04-26 03:04 26.73840 -80.63242 20971 ft 384 kts 339°
2026-04-26 03:04 26.76374 -80.64208 20973 ft 384 kts 339°
2026-04-26 03:04 26.78872 -80.65160 20970 ft 384 kts 339°
2026-04-26 03:05 26.81435 -80.66138 20972 ft 385 kts 339°
2026-04-26 03:05 26.83974 -80.67107 20975 ft 385 kts 339°
2026-04-26 03:05 26.86480 -80.68063 20973 ft 385 kts 339°
2026-04-26 03:05 26.89013 -80.69031 20969 ft 385 kts 339°
2026-04-26 03:06 26.91547 -80.69999 20972 ft 385 kts 339°
2026-04-26 03:06 26.94086 -80.70970 20973 ft 385 kts 339°
2026-04-26 03:06 26.96620 -80.71939 20973 ft 385 kts 339°
2026-04-26 03:06 26.99150 -80.72907 20973 ft 385 kts 339°
2026-04-26 03:07 27.01685 -80.73878 20973 ft 385 kts 339°
2026-04-26 03:07 27.04223 -80.74850 20971 ft 385 kts 339°
2026-04-26 03:07 27.06758 -80.75821 20971 ft 385 kts 339°
2026-04-26 03:07 27.09298 -80.76795 20969 ft 385 kts 339°
2026-04-26 03:08 27.11838 -80.77770 20964 ft 385 kts 339°
2026-04-26 03:08 27.14370 -80.78742 20962 ft 385 kts 339°
2026-04-26 03:08 27.16900 -80.79713 20962 ft 385 kts 339°
2026-04-26 03:08 27.19435 -80.80687 20963 ft 385 kts 339°
2026-04-26 03:09 27.21972 -80.81662 20965 ft 386 kts 339°
2026-04-26 03:09 27.24510 -80.82639 20963 ft 386 kts 339°
2026-04-26 03:09 27.27053 -80.83617 20963 ft 385 kts 339°
2026-04-26 03:09 27.29580 -80.84590 20964 ft 385 kts 339°
2026-04-26 03:10 27.32126 -80.85568 20964 ft 385 kts 340°
2026-04-26 03:10 27.34691 -80.86445 20965 ft 386 kts 342°
2026-04-26 03:10 27.37288 -80.87220 20965 ft 386 kts 343°
2026-04-26 03:10 27.39859 -80.87955 20962 ft 386 kts 344°
2026-04-26 03:11 27.42466 -80.88698 20962 ft 386 kts 344°
2026-04-26 03:11 27.45067 -80.89448 20964 ft 386 kts 343°
2026-04-26 03:11 27.47670 -80.90208 20964 ft 386 kts 343°
2026-04-26 03:11 27.50269 -80.90975 20962 ft 387 kts 343°
2026-04-26 03:12 27.52873 -80.91747 20965 ft 387 kts 343°
2026-04-26 03:12 27.55471 -80.92520 20963 ft 387 kts 343°
2026-04-26 03:12 27.58072 -80.93296 20960 ft 386 kts 343°
2026-04-26 03:12 27.60653 -80.94066 20933 ft 380 kts 343°
2026-04-26 03:13 27.63189 -80.94822 20775 ft 375 kts 343°
2026-04-26 03:13 27.65686 -80.95568 20537 ft 369 kts 343°
2026-04-26 03:13 27.68161 -80.96307 20157 ft 366 kts 343°
2026-04-26 03:13 27.70612 -80.97041 19707 ft 364 kts 343°
2026-04-26 03:14 27.73053 -80.97771 19254 ft 362 kts 343°
2026-04-26 03:14 27.75482 -80.98498 18793 ft 360 kts 343°
2026-04-26 03:14 27.77890 -80.99220 18323 ft 358 kts 343°
2026-04-26 03:14 27.80293 -80.99939 17870 ft 356 kts 343°
2026-04-26 03:15 27.82678 -81.00654 17415 ft 354 kts 343°
2026-04-26 03:15 27.85053 -81.01367 16960 ft 352 kts 343°
2026-04-26 03:15 27.87415 -81.02075 16517 ft 350 kts 343°
2026-04-26 03:15 27.89764 -81.02780 16069 ft 348 kts 343°
2026-04-26 03:16 27.92099 -81.03481 15622 ft 346 kts 343°
2026-04-26 03:16 27.94411 -81.04218 15163 ft 344 kts 340°
2026-04-26 03:16 27.96655 -81.05133 14722 ft 342 kts 337°
2026-04-26 03:16 27.98862 -81.06108 14279 ft 340 kts 337°
2026-04-26 03:17 28.01057 -81.07077 13835 ft 338 kts 337°
2026-04-26 03:17 28.03249 -81.08025 13394 ft 336 kts 338°
2026-04-26 03:17 28.05437 -81.08956 12956 ft 335 kts 338°
2026-04-26 03:17 28.07615 -81.09879 12518 ft 334 kts 338°
2026-04-26 03:18 28.09049 -81.10492 12232 ft 333 kts 337°
2026-04-26 03:18 28.11198 -81.11432 11799 ft 331 kts 337°
2026-04-26 03:18 28.14062 -81.12698 11221 ft 329 kts 336°
2026-04-26 03:18 28.15473 -81.13323 10932 ft 328 kts 336°
2026-04-26 03:19 28.17598 -81.14262 10533 ft 326 kts 336°
2026-04-26 03:19 28.19678 -81.15180 10395 ft 315 kts 337°
2026-04-26 03:19 28.21692 -81.16067 10246 ft 306 kts 337°
2026-04-26 03:19 28.23647 -81.16929 10110 ft 297 kts 336°
2026-04-26 03:20 28.25539 -81.17763 9980 ft 288 kts 336°
2026-04-26 03:20 28.27412 -81.18517 9643 ft 282 kts 346°
2026-04-26 03:20 28.29363 -81.18663 9358 ft 281 kts 358°
2026-04-26 03:20 28.31318 -81.18646 9045 ft 280 kts 358°
2026-04-26 03:21 28.33264 -81.18656 8724 ft 279 kts 357°
2026-04-26 03:21 28.35180 -81.18681 8591 ft 271 kts 357°
2026-04-26 03:21 28.37038 -81.18711 8459 ft 263 kts 356°
2026-04-26 03:21 28.38838 -81.18743 8331 ft 255 kts 356°
2026-04-26 03:22 28.40605 -81.18765 8034 ft 254 kts 357°
2026-04-26 03:22 28.42368 -81.18779 7757 ft 253 kts 357°
2026-04-26 03:22 28.44127 -81.18792 7465 ft 252 kts 357°
2026-04-26 03:22 28.45878 -81.18806 7180 ft 251 kts 357°
2026-04-26 03:23 28.47613 -81.18820 6928 ft 249 kts 357°
2026-04-26 03:23 28.49333 -81.18835 6460 ft 247 kts 357°
2026-04-26 03:23 28.51060 -81.18849 5959 ft 248 kts 358°
2026-04-26 03:23 28.52772 -81.18862 5566 ft 250 kts 358°
2026-04-26 03:24 28.54511 -81.18872 5317 ft 248 kts 358°
2026-04-26 03:24 28.56227 -81.18881 5048 ft 246 kts 358°
2026-04-26 03:24 28.57940 -81.18891 4751 ft 246 kts 358°
2026-04-26 03:24 28.59630 -81.18904 4451 ft 247 kts 358°
2026-04-26 03:25 28.61343 -81.18922 4165 ft 246 kts 358°
2026-04-26 03:25 28.63043 -81.18944 4049 ft 244 kts 358°
2026-04-26 03:25 28.64723 -81.18972 3982 ft 237 kts 358°
2026-04-26 03:25 28.66321 -81.18998 3962 ft 223 kts 358°
2026-04-26 03:26 28.67851 -81.19023 3961 ft 217 kts 357°
2026-04-26 03:26 28.69279 -81.19385 3972 ft 213 kts 326°
2026-04-26 03:26 28.70275 -81.20587 3982 ft 210 kts 290°
2026-04-26 03:26 28.70539 -81.22205 4011 ft 213 kts 269°
2026-04-26 03:27 28.70524 -81.23935 3993 ft 220 kts 266°
2026-04-26 03:27 28.70243 -81.25610 3959 ft 217 kts 237°
2026-04-26 03:27 28.69130 -81.26738 4005 ft 218 kts 207°
2026-04-26 03:27 28.67709 -81.27381 3989 ft 221 kts 196°
2026-04-26 03:28 28.66207 -81.27740 3987 ft 221 kts 188°
2026-04-26 03:28 28.64683 -81.27862 4035 ft 217 kts 182°
2026-04-26 03:28 28.63209 -81.27997 3971 ft 209 kts 187°
2026-04-26 03:28 28.61785 -81.28149 3875 ft 200 kts 185°
2026-04-26 03:29 28.60431 -81.28226 3560 ft 192 kts 182°
2026-04-26 03:29 28.59123 -81.28302 3170 ft 184 kts 185°
2026-04-26 03:29 28.57860 -81.28373 2744 ft 180 kts 181°
2026-04-26 03:29 28.56670 -81.28380 2501 ft 163 kts 180°
2026-04-26 03:30 28.55535 -81.28373 2279 ft 162 kts 180°
2026-04-26 03:30 28.54417 -81.28361 2062 ft 160 kts 179°
2026-04-26 03:30 28.53352 -81.28351 1852 ft 151 kts 179°
2026-04-26 03:30 28.52303 -81.28339 1659 ft 150 kts 179°
2026-04-26 03:31 28.51254 -81.28329 1460 ft 152 kts 179°
2026-04-26 03:31 28.50197 -81.28318 1265 ft 152 kts 179°
2026-04-26 03:31 28.49140 -81.28307 1057 ft 151 kts 179°
2026-04-26 03:31 28.48087 -81.28296 845 ft 151 kts 179°
2026-04-26 03:32 28.47036 -81.28284 644 ft 151 kts 180°
2026-04-26 03:32 28.45991 -81.28277 449 ft 151 kts 179°
2026-04-26 03:32 28.44939 -81.28265 255 ft 152 kts 179°
2026-04-26 03:32 28.43892 -81.28253 105 ft 148 kts 180°
2026-04-26 03:33 28.43010 -81.28243 101 ft 101 kts 179°
2026-04-26 03:33 28.42511 -81.28237 104 ft 45 kts 179°
2026-04-26 03:33 28.42346 -81.28266 103 ft 17 kts 211°
2026-04-26 03:33 28.42301 -81.28320 102 ft 6 kts 252°
2026-04-26 03:34 28.42308 -81.28334 102 ft 2 kts 313°
2026-04-26 03:34 28.42329 -81.28347 101 ft 5 kts 330°
2026-04-26 03:34 28.42368 -81.28358 101 ft 6 kts 355°
2026-04-26 03:34 28.42407 -81.28358 101 ft 0 kts 360°
2026-04-26 03:35 28.42413 -81.28358 101 ft 2 kts
2026-04-26 03:35 28.42428 -81.28358 101 ft 0 kts
2026-04-26 03:35 28.42429 -81.28358 101 ft 1 kts
2026-04-26 03:35 28.42440 -81.28357 101 ft 2 kts
2026-04-26 03:36 28.42461 -81.28363 101 ft 4 kts 337°
2026-04-26 03:36 28.42480 -81.28395 100 ft 6 kts 296°
2026-04-26 03:36 28.42483 -81.28446 100 ft 7 kts 266°
2026-04-26 03:36 28.42473 -81.28505 100 ft 8 kts 256°
2026-04-26 03:37 28.42457 -81.28566 102 ft 8 kts 251°
2026-04-26 03:37 28.42439 -81.28626 103 ft 8 kts 251°
2026-04-26 03:37 28.42418 -81.28691 103 ft 9 kts 250°
2026-04-26 03:37 28.42376 -81.28823 108 ft 32 kts 250°
2026-04-26 03:38 28.42301 -81.29086 99 ft 30 kts 257°
2026-04-26 03:38 28.42286 -81.29322 99 ft 30 kts 267°
2026-04-26 03:38 28.42282 -81.29559 99 ft 30 kts 269°
2026-04-26 03:38 28.42282 -81.29772 99 ft 19 kts 269°
2026-04-26 03:39 28.42281 -81.29923 99 ft 19 kts 269°
2026-04-26 03:39 28.42279 -81.30072 99 ft 17 kts 276°
2026-04-26 03:39 28.42350 -81.30131 102 ft 14 kts 356°
2026-04-26 03:39 28.42443 -81.30147 99 ft 13 kts 334°
2026-04-26 03:40 28.42504 -81.30224 99 ft 13 kts 298°
2026-04-26 03:40 28.42540 -81.30281 99 ft 8 kts 297°
2026-04-26 03:40 28.42586 -81.30299 101 ft 8 kts 17°
2026-04-26 03:40 28.42631 -81.30262 101 ft 8 kts 46°
2026-04-26 03:41 28.42634 -81.30258 99 ft 0 kts 46°